Baku airport (UBBB)

baku-airport

Baku International Airport

Heydar Aliyev International Airport is the main international airport in Azerbaijan located 20 km (12 mi) northeast of the capital Baku. The airport is the home of Azerbaijan Airlines, the national flag carrier. It is the busiest airport in Azerbaijan and of the Caucasus.

ICAO: UBBB, IATA: GYD

Charts: Jeppesen

Sceneries: freeware demos w. reduced resolution

 fs9     fsx     Prepar

payware: http://www.drzewiecki-design.net/

METAR:

UBBB 142130Z 10004KT CAVOK 11/08 Q1016 R88/CLRD// NOSIG

TAF AMD UBBB 141921Z 1419/1518 VRB04KT CAVOK TX20/1510Z TN08/1502Z TEMPO 1500/1504 5000 BR SCT010 BECMG 1506/1508 14005KT TEMPO 1508/1518 18014KT SCT025